| time (UTC) | temp C | wind direction | speed KPH | gust KPH | rain 1hr cm | rain 24hr cm | rain mn cm | humidity % | barometer mb |
| 20260903011154 | 28 | 0 | 0.0 | 0.0 | 0.00 | 0.00 | 0.00 | 1014.5 | |
| 20260903010654 | 28 | 0 | 0.0 | 0.0 | 0.00 | 0.00 | 0.00 | 1014.6 | |
| 20260903010154 | 28 | 0 | 0.0 | 0.0 | 0.00 | 0.00 | 0.00 | 1014.2 | |
| 20260903005655 | 28 | 0 | 0.0 | 0.0 | 0.00 | 0.00 | 0.00 | 1014.5 | |
| 20260903005153 | 28 | 0 | 0.0 | 0.0 | 0.00 | 0.00 | 0.00 | 1014.5 | |
| 20260903004653 | 28 | 0 | 0.0 | 0.0 | 0.00 | 0.00 | 0.00 | 1014.4 | |
| 20260903004153 | 29 | 0 | 0.0 | 0.0 | 0.00 | 0.00 | 0.00 | 1014.1 | |
| 20260903003653 | 30 | 0 | 0.0 | 0.0 | 0.00 | 0.00 | 0.00 | 1014.2 | |
| 20260903003153 | 30 | 210 | 0.0 | 3.2 | 0.00 | 0.00 | 0.00 | 1014.1 | |
| 20260903002652 | 30 | 0 | 0.0 | 0.0 | 0.00 | 0.00 | 0.00 | 1014.1 | |
| 20260903002152 | 30 | 0 | 0.0 | 0.0 | 0.00 | 0.00 | 0.00 | 1014.1 | |
| 20260903001653 | 30 | 179 | 0.0 | 1.6 | 0.00 | 0.00 | 0.00 | 1014.2 | |
| 20260903001152 | 30 | 262 | 0.0 | 1.6 | 0.00 | 0.00 | 0.00 | 1014.0 | |
| 20260903000651 | 30 | 0 | 0.0 | 0.0 | 0.00 | 0.00 | 0.00 | 1014.1 | |
| 20260903000155 | 31 | 0 | 0.0 | 0.0 | 0.00 | 0.00 | 0.00 | 1014.1 | |
| 20260902235650 | 31 | 257 | 0.0 | 1.6 | 0.00 | 0.00 | 0.00 | 1013.9 | |
| 20260902235150 | 31 | 249 | 1.6 | 4.8 | 0.00 | 0.00 | 0.00 | 1014.0 | |
| 20260902234651 | 32 | 259 | 0.0 | 3.2 | 0.00 | 0.00 | 0.00 | 1013.8 | |
| 20260902234149 | 32 | 304 | 0.0 | 1.6 | 0.00 | 0.00 | 0.00 | 1014.0 | |
| 20260902233650 | 32 | 222 | 1.6 | 3.2 | 0.00 | 0.00 | 0.00 | 1013.9 | |
| 20260902233149 | 33 | 242 | 1.6 | 3.2 | 0.00 | 0.00 | 0.00 | 1014.0 | |
| 20260902232649 | 33 | 266 | 0.0 | 1.6 | 0.00 | 0.00 | 0.00 | 1014.0 | |
| 20260902232149 | 34 | 259 | 0.0 | 3.2 | 0.00 | 0.00 | 0.00 | 1014.1 | |
| 20260902231148 | 34 | 260 | 1.6 | 9.7 | 0.00 | 0.00 | 0.00 | 1014.0 | |
| 20260902230649 | 36 | 266 | 1.6 | 9.7 | 0.00 | 0.00 | 0.00 | 1013.9 | |
| 20260902230148 | 38 | 277 | 1.6 | 4.8 | 0.00 | 0.00 | 0.00 | 1013.9 | |
| 20260902225647 | 37 | 245 | 1.6 | 4.8 | 0.00 | 0.00 | 0.00 | 1013.8 | |
| 20260902225147 | 36 | 252 | 1.6 | 3.2 | 0.00 | 0.00 | 0.00 | 1014.1 | |
| 20260902224647 | 35 | 280 | 1.6 | 6.4 | 0.00 | 0.00 | 0.00 | 1014.0 | |
| 20260902224147 | 35 | 252 | 1.6 | 4.8 | 0.00 | 0.00 | 0.00 | 1014.1 | |
| 20260902223646 | 37 | 243 | 1.6 | 6.4 | 0.00 | 0.00 | 0.00 | 1014.0 | |
| 20260902223146 | 41 | 203 | 1.6 | 3.2 | 0.00 | 0.00 | 0.00 | 1014.2 | |
| 20260902222146 | 38 | 257 | 1.6 | 4.8 | 0.00 | 0.00 | 0.00 | 1014.0 | |
| 20260902220145 | 38 | 208 | 1.6 | 3.2 | 0.00 | 0.00 | 0.00 | 1014.2 | |
| 20260902215645 | 36 | 249 | 0.0 | 4.8 | 0.00 | 0.00 | 0.00 | 1014.2 | |
| 20260902215145 | 35 | 207 | 1.6 | 4.8 | 0.00 | 0.00 | 0.00 | 1014.2 | |
| 20260902214644 | 35 | 250 | 1.6 | 4.8 | 0.00 | 0.00 | 0.00 | 1014.2 | |
| 20260902214145 | 35 | 276 | 1.6 | 4.8 | 0.00 | 0.00 | 0.00 | 1014.2 | |
| 20260902213643 | 35 | 256 | 1.6 | 3.2 | 0.00 | 0.00 | 0.00 | 1014.2 | |
| 20260902213143 | 35 | 233 | 1.6 | 6.4 | 0.00 | 0.00 | 0.00 | 1014.4 | |
| 20260902212143 | 35 | 249 | 1.6 | 4.8 | 0.00 | 0.00 | 0.00 | 1014.4 | |
| 20260902211643 | 36 | 259 | 1.6 | 4.8 | 0.00 | 0.00 | 0.00 | 1014.4 | |
| 20260902211142 | 35 | 233 | 1.6 | 6.4 | 0.00 | 0.00 | 0.00 | 1014.5 | |
| 20260902210642 | 36 | 238 | 1.6 | 8.0 | 0.00 | 0.00 | 0.00 | 1014.5 | |
| 20260902205639 | 36 | 240 | 3.2 | 9.7 | 0.00 | 0.00 | 0.00 | 1014.4 | |
| 20260902205139 | 36 | 184 | 1.6 | 6.4 | 0.00 | 0.00 | 0.00 | 1014.7 | |
| 20260902204639 | 36 | 242 | 1.6 | 8.0 | 0.00 | 0.00 | 0.00 | 1014.7 | |
| 20260902204139 | 36 | 229 | 1.6 | 6.4 | 0.00 | 0.00 | 0.00 | 1014.6 | |
| 20260902202638 | 36 | 235 | 1.6 | 6.4 | 0.00 | 0.00 | 0.00 | 1014.6 | |
| 20260902202138 | 36 | 278 | 1.6 | 6.4 | 0.00 | 0.00 | 0.00 | 1014.7 | |
| 20260902201637 | 36 | 162 | 1.6 | 6.4 | 0.00 | 0.00 | 0.00 | 1014.7 | |
| 20260902201137 | 36 | 240 | 1.6 | 6.4 | 0.00 | 0.00 | 0.00 | 1014.8 | |
| 20260902200636 | 36 | 242 | 1.6 | 6.4 | 0.00 | 0.00 | 0.00 | 1014.9 | |
| 20260902195634 | 35 | 242 | 0.0 | 6.4 | 0.00 | 0.00 | 0.00 | 1014.9 | |
| 20260902195134 | 36 | 309 | 1.6 | 3.2 | 0.00 | 0.00 | 0.00 | 1014.8 | |
| 20260902194634 | 36 | 291 | 1.6 | 4.8 | 0.00 | 0.00 | 0.00 | 1015.1 | |
| 20260902194133 | 36 | 236 | 1.6 | 6.4 | 0.00 | 0.00 | 0.00 | 1015.1 | |
| 20260902193633 | 36 | 242 | 1.6 | 11.3 | 0.00 | 0.00 | 0.00 | 1015.3 | |
| 20260902193133 | 35 | 252 | 1.6 | 6.4 | 0.00 | 0.00 | 0.00 | 1015.3 | |
| 20260902192633 | 36 | 222 | 3.2 | 8.0 | 0.00 | 0.00 | 0.00 | 1015.4 | |
| 20260902192132 | 35 | 295 | 1.6 | 3.2 | 0.00 | 0.00 | 0.00 | 1015.3 | |
| 20260902191632 | 36 | 243 | 1.6 | 8.0 | 0.00 | 0.00 | 0.00 | 1015.5 | |
| 20260902191132 | 36 | 242 | 1.6 | 8.0 | 0.00 | 0.00 | 0.00 | 1015.5 | |
| 20260902190633 | 35 | 235 | 1.6 | 8.0 | 0.00 | 0.00 | 0.00 | 1015.5 | |
| 20260902190132 | 35 | 250 | 1.6 | 6.4 | 0.00 | 0.00 | 0.00 | 1015.6 | |
| 20260902185632 | 36 | 104 | 1.6 | 8.0 | 0.00 | 0.00 | 0.00 | 1015.7 | |
| 20260902185131 | 35 | 245 | 3.2 | 8.0 | 0.00 | 0.00 | 0.00 | 1015.6 | |
| 20260902184631 | 35 | 253 | 1.6 | 6.4 | 0.00 | 0.00 | 0.00 | 1015.6 | |
| 20260902184131 | 36 | 248 | 3.2 | 6.4 | 0.00 | 0.00 | 0.00 | 1015.8 | |
| 20260902183630 | 35 | 248 | 1.6 | 3.2 | 0.00 | 0.00 | 0.00 | 1015.7 | |
| 20260902183130 | 35 | 215 | 0.0 | 1.6 | 0.00 | 0.00 | 0.00 | 1015.9 | |
| 20260902182630 | 33 | 215 | 0.0 | 1.6 | 0.00 | 0.00 | 0.00 | 1015.8 | |
| 20260902182131 | 33 | 262 | 0.0 | 3.2 | 0.00 | 0.00 | 0.00 | 1015.8 | |
| 20260902181630 | 34 | 245 | 1.6 | 6.4 | 0.00 | 0.00 | 0.00 | 1015.9 | |
| 20260902181129 | 35 | 238 | 1.6 | 6.4 | 0.00 | 0.00 | 0.00 | 1015.8 | |
| 20260902180129 | 35 | 222 | 1.6 | 6.4 | 0.00 | 0.00 | 0.00 | 1016.0 | |
| 20260902175629 | 35 | 231 | 1.6 | 6.4 | 0.00 | 0.00 | 0.00 | 1016.1 | |
| 20260902175128 | 35 | 231 | 0.0 | 4.8 | 0.00 | 0.00 | 0.00 | 1016.1 | |
| 20260902174628 | 36 | 236 | 1.6 | 4.8 | 0.00 | 0.00 | 0.00 | 1016.2 | |
| 20260902174128 | 35 | 242 | 1.6 | 4.8 | 0.00 | 0.00 | 0.00 | 1016.4 | |
| 20260902173628 | 35 | 243 | 1.6 | 4.8 | 0.00 | 0.00 | 0.00 | 1016.4 | |
| 20260902173128 | 35 | 281 | 1.6 | 3.2 | 0.00 | 0.00 | 0.00 | 1016.3 | |
| 20260902172628 | 35 | 250 | 3.2 | 8.0 | 0.00 | 0.00 | 0.00 | 1016.7 | |
| 20260902172127 | 35 | 249 | 1.6 | 6.4 | 0.00 | 0.00 | 0.00 | 1016.5 | |
| 20260902171627 | 34 | 267 | 3.2 | 9.7 | 0.00 | 0.00 | 0.00 | 1016.6 | |
| 20260902171128 | 35 | 255 | 3.2 | 9.7 | 0.00 | 0.00 | 0.00 | 1016.5 | |
| 20260902170626 | 35 | 246 | 1.6 | 6.4 | 0.00 | 0.00 | 0.00 | 1016.6 | |
| 20260902170126 | 35 | 262 | 3.2 | 6.4 | 0.00 | 0.00 | 0.00 | 1016.5 | |
| 20260902165626 | 35 | 249 | 1.6 | 6.4 | 0.00 | 0.00 | 0.00 | 1016.6 | |
| 20260902165126 | 35 | 240 | 1.6 | 8.0 | 0.00 | 0.00 | 0.00 | 1016.6 | |
| 20260902164625 | 35 | 255 | 1.6 | 4.8 | 0.00 | 0.00 | 0.00 | 1016.6 | |
| 20260902164125 | 35 | 260 | 0.0 | 1.6 | 0.00 | 0.00 | 0.00 | 1016.6 | |
| 20260902163625 | 35 | 243 | 1.6 | 4.8 | 0.00 | 0.00 | 0.00 | 1016.6 | |
| 20260902163125 | 35 | 252 | 1.6 | 6.4 | 0.00 | 0.00 | 0.00 | 1016.8 | |
| 20260902162624 | 34 | 243 | 1.6 | 4.8 | 0.00 | 0.00 | 0.00 | 1016.7 | |
| 20260902160623 | 33 | 242 | 1.6 | 6.4 | 0.00 | 0.00 | 0.00 | 1016.8 | |
| 20260902160123 | 33 | 214 | 1.6 | 6.4 | 0.00 | 0.00 | 0.00 | 1017.1 | |
| 20260902155623 | 34 | 248 | 3.2 | 11.3 | 0.00 | 0.00 | 0.00 | 1016.8 | |
| 20260902155123 | 34 | 221 | 1.6 | 4.8 | 0.00 | 0.00 | 0.00 | 1017.0 | |
| 20260902154622 | 33 | 281 | 1.6 | 3.2 | 0.00 | 0.00 | 0.00 | 1017.1 | |
| 20260902154122 | 33 | 219 | 1.6 | 3.2 | 0.00 | 0.00 | 0.00 | 1017.1 | |
| 20260902153622 | 33 | 252 | 3.2 | 8.0 | 0.00 | 0.00 | 0.00 | 1017.0 | |
| 20260902153122 | 33 | 236 | 3.2 | 6.4 | 0.00 | 0.00 | 0.00 | 1017.0 | |
| 20260902152621 | 35 | 264 | 1.6 | 3.2 | 0.00 | 0.00 | 0.00 | 1017.1 | |
| 20260902152121 | 37 | 259 | 3.2 | 8.0 | 0.00 | 0.00 | 0.00 | 1017.1 | |
| 20260902151621 | 38 | 245 | 0.0 | 3.2 | 0.00 | 0.00 | 0.00 | 1017.1 | |
| 20260902151121 | 37 | 294 | 0.0 | 1.6 | 0.00 | 0.00 | 0.00 | 1017.2 | |
| 20260902150621 | 36 | 239 | 1.6 | 6.4 | 0.00 | 0.00 | 0.00 | 1017.5 | |
| 20260902150120 | 36 | 262 | 3.2 | 9.7 | 0.00 | 0.00 | 0.00 | 1017.2 | |
| 20260902145620 | 37 | 235 | 0.0 | 4.8 | 0.00 | 0.00 | 0.00 | 1017.1 | |
| 20260902145120 | 36 | 233 | 1.6 | 9.7 | 0.00 | 0.00 | 0.00 | 1017.2 | |
| 20260902144620 | 36 | 231 | 1.6 | 4.8 | 0.00 | 0.00 | 0.00 | 1017.5 | |
| 20260902144119 | 36 | 249 | 1.6 | 3.2 | 0.00 | 0.00 | 0.00 | 1017.2 | |
| 20260902143619 | 35 | 222 | 3.2 | 9.7 | 0.00 | 0.00 | 0.00 | 1017.3 | |
| 20260902143119 | 35 | 246 | 1.6 | 3.2 | 0.00 | 0.00 | 0.00 | 1017.2 | |
| 20260902142620 | 34 | 256 | 1.6 | 3.2 | 0.00 | 0.00 | 0.00 | 1017.2 | |
| 20260902142119 | 34 | 242 | 1.6 | 6.4 | 0.00 | 0.00 | 0.00 | 1017.3 | |
| 20260902141618 | 35 | 249 | 1.6 | 8.0 | 0.00 | 0.00 | 0.00 | 1017.3 | |
| 20260902141117 | 36 | 238 | 1.6 | 6.4 | 0.00 | 0.00 | 0.00 | 1017.1 | |
| 20260902140617 | 36 | 252 | 1.6 | 4.8 | 0.00 | 0.00 | 0.00 | 1017.1 | |
| 20260902140117 | 37 | 259 | 1.6 | 4.8 | 0.00 | 0.00 | 0.00 | 1017.1 | |
| 20260902135617 | 36 | 245 | 1.6 | 4.8 | 0.00 | 0.00 | 0.00 | 1017.3 | |
| 20260902135118 | 35 | 208 | 0.0 | 1.6 | 0.00 | 0.00 | 0.00 | 1017.3 | |
| 20260902134116 | 35 | 238 | 1.6 | 4.8 | 0.00 | 0.00 | 0.00 | 1017.3 | |
| 20260902133616 | 35 | 236 | 0.0 | 3.2 | 0.00 | 0.00 | 0.00 | 1017.2 | |
| 20260902133116 | 34 | 248 | 0.0 | 1.6 | 0.00 | 0.00 | 0.00 | 1017.1 | |
| 20260902132615 | 35 | 283 | 0.0 | 1.6 | 0.00 | 0.00 | 0.00 | 1017.0 | |
| 20260902132116 | 34 | 194 | 0.0 | 1.6 | 0.00 | 0.00 | 0.00 | 1017.2 | |
| 20260902131615 | 33 | 233 | 0.0 | 1.6 | 0.00 | 0.00 | 0.00 | 1017.3 | |
| 20260902131114 | 32 | 263 | 0.0 | 3.2 | 0.00 | 0.00 | 0.00 | 1017.1 | |
| 20260902130616 | 32 | 188 | 0.0 | 1.6 | 0.00 | 0.00 | 0.00 | 1017.3 | |
| 20260902125613 | 32 | 219 | 1.6 | 3.2 | 0.00 | 0.00 | 0.00 | 1017.2 | |
| 20260902125113 | 31 | 0 | 0.0 | 0.0 | 0.00 | 0.00 | 0.00 | 1017.3 | |
| 20260902124613 | 30 | 0 | 0.0 | 0.0 | 0.00 | 0.00 | 0.00 | 1017.3 | |
| 20260902124113 | 29 | 0 | 0.0 | 0.0 | 0.00 | 0.00 | 0.00 | 1017.2 | |
| 20260902123612 | 28 | 0 | 0.0 | 0.0 | 0.00 | 0.00 | 0.00 | 1017.2 | |
| 20260902123112 | 26 | 0 | 0.0 | 0.0 | 0.00 | 0.00 | 0.00 | 1017.0 | |
| 20260902122611 | 24 | 0 | 0.0 | 0.0 | 0.00 | 0.00 | 0.00 | 1017.2 | |
| 20260902122111 | 24 | 0 | 0.0 | 0.0 | 0.00 | 0.00 | 0.00 | 1017.0 | |
| 20260902121645 | 23 | 0 | 0.0 | 0.0 | 0.00 | 0.00 | 0.00 | 1017.0 | |
| 20260902121611 | 23 | 0 | 0.0 | 0.0 | 0.00 | 0.00 | 0.00 | 1017.0 | |
| 20260902120109 | 23 | 0 | 0.0 | 0.0 | 0.00 | 0.00 | 0.00 | 1017.1 | |
| 20260902115609 | 22 | 0 | 0.0 | 0.0 | 0.00 | 0.00 | 0.00 | 1016.9 | |
| 20260902115109 | 22 | 0 | 0.0 | 0.0 | 0.00 | 0.00 | 0.00 | 1017.0 | |
| 20260902114609 | 22 | 0 | 0.0 | 0.0 | 0.00 | 0.00 | 0.00 | 1016.8 | |
| 20260902114109 | 22 | 0 | 0.0 | 0.0 | 0.00 | 0.00 | 0.00 | 1016.7 | |
| 20260902113608 | 22 | 0 | 0.0 | 0.0 | 0.00 | 0.00 | 0.00 | 1016.7 | |
| 20260902113109 | 22 | 0 | 0.0 | 0.0 | 0.00 | 0.00 | 0.00 | 1016.5 | |
| 20260902112609 | 22 | 0 | 0.0 | 0.0 | 0.00 | 0.00 | 0.00 | 1016.4 | |
| 20260902111607 | 22 | 0 | 0.0 | 0.0 | 0.00 | 0.00 | 0.00 | 1016.4 | |
| 20260902111107 | 22 | 0 | 0.0 | 0.0 | 0.00 | 0.00 | 0.00 | 1016.6 | |
| 20260902110606 | 22 | 0 | 0.0 | 0.0 | 0.00 | 0.00 | 0.00 | 1016.5 | |
| 20260902110105 | 22 | 0 | 0.0 | 0.0 | 0.00 | 0.00 | 0.00 | 1016.6 | |
| 20260902105605 | 22 | 0 | 0.0 | 0.0 | 0.00 | 0.00 | 0.00 | 1016.6 | |
| 20260902105105 | 22 | 0 | 0.0 | 0.0 | 0.00 | 0.00 | 0.00 | 1016.7 | |
| 20260902104604 | 22 | 0 | 0.0 | 0.0 | 0.00 | 0.00 | 0.00 | 1016.5 | |
| 20260902103641 | 22 | 0 | 0.0 | 0.0 | 0.00 | 0.00 | 0.00 | 1016.5 | |
| 20260902103604 | 22 | 0 | 0.0 | 0.0 | 0.00 | 0.00 | 0.00 | 1016.5 | |
| 20260902103103 | 22 | 0 | 0.0 | 0.0 | 0.00 | 0.00 | 0.00 | 1016.5 | |
| 20260902102604 | 22 | 0 | 0.0 | 0.0 | 0.00 | 0.00 | 0.00 | 1016.7 | |
| 20260902102140 | 22 | 0 | 0.0 | 0.0 | 0.00 | 0.00 | 0.00 | 1016.4 | |
| 20260902102103 | 22 | 0 | 0.0 | 0.0 | 0.00 | 0.00 | 0.00 | 1016.4 | |
| 20260902101603 | 22 | 0 | 0.0 | 0.0 | 0.00 | 0.00 | 0.00 | 1016.4 | |
| 20260902101103 | 22 | 0 | 0.0 | 0.0 | 0.00 | 0.00 | 0.00 | 1016.4 | |
| 20260902095601 | 22 | 0 | 0.0 | 0.0 | 0.00 | 0.00 | 0.00 | 1016.4 | |
| 20260902095100 | 22 | 0 | 0.0 | 0.0 | 0.00 | 0.00 | 0.00 | 1016.3 | |
| 20260902094600 | 22 | 0 | 0.0 | 0.0 | 0.00 | 0.00 | 0.00 | 1016.3 | |
| 20260902094100 | 22 | 0 | 0.0 | 0.0 | 0.00 | 0.00 | 0.00 | 1016.2 | |
| 20260902093600 | 22 | 0 | 0.0 | 0.0 | 0.00 | 0.00 | 0.00 | 1016.4 | |
| 20260902092559 | 22 | 0 | 0.0 | 0.0 | 0.00 | 0.00 | 0.00 | 1016.3 | |
| 20260902092059 | 22 | 0 | 0.0 | 0.0 | 0.00 | 0.00 | 0.00 | 1016.3 | |
| 20260902091558 | 22 | 0 | 0.0 | 0.0 | 0.00 | 0.00 | 0.00 | 1016.3 | |
| 20260902091058 | 22 | 0 | 0.0 | 0.0 | 0.00 | 0.00 | 0.00 | 1016.2 | |
| 20260902090558 | 22 | 0 | 0.0 | 0.0 | 0.00 | 0.00 | 0.00 | 1016.0 | |
| 20260902090057 | 22 | 0 | 0.0 | 0.0 | 0.00 | 0.00 | 0.00 | 1016.1 | |
| 20260902085558 | 22 | 0 | 0.0 | 0.0 | 0.00 | 0.00 | 0.00 | 1016.1 | |
| 20260902085054 | 22 | 0 | 0.0 | 0.0 | 0.00 | 0.00 | 0.00 | 1016.0 | |
| 20260902084053 | 22 | 0 | 0.0 | 0.0 | 0.00 | 0.00 | 0.00 | 1016.0 | |
| 20260902083552 | 22 | 0 | 0.0 | 0.0 | 0.00 | 0.00 | 0.00 | 1015.8 | |
| 20260902083052 | 22 | 0 | 0.0 | 0.0 | 0.00 | 0.00 | 0.00 | 1015.8 | |
| 20260902082552 | 22 | 0 | 0.0 | 0.0 | 0.00 | 0.00 | 0.00 | 1015.8 | |
| 20260902082052 | 22 | 0 | 0.0 | 0.0 | 0.00 | 0.00 | 0.00 | 1015.8 | |
| 20260902081053 | 23 | 0 | 0.0 | 0.0 | 0.00 | 0.00 | 0.00 | 1015.7 | |
| 20260902080551 | 23 | 0 | 0.0 | 0.0 | 0.00 | 0.00 | 0.00 | 1015.7 | |
| 20260902080051 | 23 | 0 | 0.0 | 0.0 | 0.00 | 0.00 | 0.00 | 1015.6 | |
| 20260902075551 | 23 | 0 | 0.0 | 0.0 | 0.00 | 0.00 | 0.00 | 1015.7 | |
| 20260902075050 | 23 | 0 | 0.0 | 0.0 | 0.00 | 0.00 | 0.00 | 1015.6 | |
| 20260902073549 | 23 | 0 | 0.0 | 0.0 | 0.00 | 0.00 | 0.00 | 1015.7 | |
| 20260902072048 | 23 | 0 | 0.0 | 0.0 | 0.00 | 0.00 | 0.00 | 1015.6 | |
| 20260902071043 | 23 | 0 | 0.0 | 0.0 | 0.00 | 0.00 | 0.00 | 1015.6 | |
| 20260902070543 | 23 | 0 | 0.0 | 0.0 | 0.00 | 0.00 | 0.00 | 1015.6 | |
| 20260902070042 | 23 | 0 | 0.0 | 0.0 | 0.00 | 0.00 | 0.00 | 1015.7 | |
| 20260902065542 | 23 | 0 | 0.0 | 0.0 | 0.00 | 0.00 | 0.00 | 1015.7 | |
| 20260902064542 | 23 | 0 | 0.0 | 0.0 | 0.00 | 0.00 | 0.00 | 1015.7 | |
| 20260902064042 | 23 | 0 | 0.0 | 0.0 | 0.00 | 0.00 | 0.00 | 1015.6 | |
| 20260902063541 | 23 | 0 | 0.0 | 0.0 | 0.00 | 0.00 | 0.00 | 1015.5 | |
| 20260902062538 | 23 | 0 | 0.0 | 0.0 | 0.00 | 0.00 | 0.00 | 1015.6 | |
| 20260902062038 | 23 | 0 | 0.0 | 0.0 | 0.00 | 0.00 | 0.00 | 1015.8 | |
| 20260902061538 | 23 | 0 | 0.0 | 0.0 | 0.00 | 0.00 | 0.00 | 1015.7 | |
| 20260902060037 | 23 | 0 | 0.0 | 0.0 | 0.00 | 0.00 | 0.00 | 1015.8 | |
| 20260902055536 | 23 | 0 | 0.0 | 0.0 | 0.00 | 0.00 | 0.00 | 1015.8 | |
| 20260902055036 | 23 | 0 | 0.0 | 0.0 | 0.00 | 0.00 | 0.00 | 1015.7 | |
| 20260902054033 | 24 | 0 | 0.0 | 0.0 | 0.00 | 0.00 | 0.00 | 1015.8 | |
| 20260902053533 | 24 | 0 | 0.0 | 0.0 | 0.00 | 0.00 | 0.00 | 1015.7 | |
| 20260902052532 | 24 | 0 | 0.0 | 0.0 | 0.00 | 0.00 | 0.00 | 1015.8 | |
| 20260902052031 | 24 | 0 | 0.0 | 0.0 | 0.00 | 0.00 | 0.00 | 1015.7 | |
| 20260902045529 | 24 | 0 | 0.0 | 0.0 | 0.00 | 0.00 | 0.00 | 1015.8 | |
| 20260902044029 | 25 | 0 | 0.0 | 0.0 | 0.00 | 0.00 | 0.00 | 1015.5 | |
| 20260902043528 | 25 | 0 | 0.0 | 0.0 | 0.00 | 0.00 | 0.00 | 1015.6 | |
| 20260902041528 | 25 | 0 | 0.0 | 0.0 | 0.00 | 0.00 | 0.00 | 1015.7 | |
| 20260902041026 | 25 | 0 | 0.0 | 0.0 | 0.00 | 0.00 | 0.00 | 1015.8 | |
| 20260902040526 | 25 | 0 | 0.0 | 0.0 | 0.00 | 0.00 | 0.00 | 1015.6 | |
| 20260902040025 | 25 | 0 | 0.0 | 0.0 | 0.00 | 0.00 | 0.00 | 1015.9 | |
| 20260902035525 | 25 | 0 | 0.0 | 0.0 | 0.00 | 0.00 | 0.00 | 1015.8 | |
| 20260902035024 | 25 | 0 | 0.0 | 0.0 | 0.00 | 0.00 | 0.00 | 1015.7 | |
| 20260902034525 | 25 | 0 | 0.0 | 0.0 | 0.00 | 0.00 | 0.00 | 1015.7 | |
| 20260902034024 | 25 | 0 | 0.0 | 0.0 | 0.00 | 0.00 | 0.00 | 1015.9 | |
| 20260902033022 | 25 | 0 | 0.0 | 0.0 | 0.00 | 0.00 | 0.00 | 1015.7 | |
| 20260902025517 | 26 | 0 | 0.0 | 0.0 | 0.00 | 0.00 | 0.00 | 1015.6 | |
| 20260902022516 | 26 | 0 | 0.0 | 0.0 | 0.00 | 0.00 | 0.00 | 1015.6 | |
| 20260902021014 | 26 | 0 | 0.0 | 0.0 | 0.00 | 0.00 | 0.00 | 1015.5 | |
| 20260902015512 | 27 | 0 | 0.0 | 0.0 | 0.00 | 0.00 | 0.00 | 1015.4 | |
| 20260902014010 | 28 | 0 | 0.0 | 0.0 | 0.00 | 0.00 | 0.00 | 1015.2 | |
| 20260902013510 | 27 | 0 | 0.0 | 0.0 | 0.00 | 0.00 | 0.00 | 1015.2 | |
| 20260902013009 | 28 | 0 | 0.0 | 0.0 | 0.00 | 0.00 | 0.00 | 1015.0 | |
| 20260902012508 | 28 | 0 | 0.0 | 0.0 | 0.00 | 0.00 | 0.00 | 1015.0 | |
| 20260902012008 | 28 | 135 | 0.0 | 1.6 | 0.00 | 0.00 | 0.00 | 1015.2 |